Weather in Akhalkalaki

Georgia     41°24′14″N   43°28′55″E
temp.,
°C
wind,
m/s
gust,
m/s
humid.,
%
clouds,
%
prec.,
mm/h
press.,
hPa
HPBL,
m
4 august, wed
wed401:00+12e32560 0.0 101918
04:00+11e32580 0.0 101917
07:00+12e22630 0.0 102025
10:00+20e02430 0.0 1017801
13:00+24ne12360 0.0 10152073
16:00+25ene223627 0.0 10142421
19:00+20ene35550 0.0 1015180
22:00+14e33560 0.0 101926
5 august, thu
thu501:00+13e22560 0.0 101914
04:00+12e22640 0.2 101919
07:00+13e22650 0.0 101825
10:00+21e01440 0.0 1016704
13:00+25nne22370 0.0 10142018
16:00+25nne33361 0.0 10122253
19:00+21e2355100 0.1 101373
22:00+15e2264100 0.1 101718
6 august, fri
fri601:00+14e3352100 0.0 101725
04:00+13e335399 0.0 101624
07:00+13e335821 0.0 101535
10:00+22ese23405 0.0 1012733
13:00+25e34345 0.0 10102026
16:00+25e54384 0.0 10091351
19:00+21e45524 0.0 1009226
22:00+15e3259100 0.3 101425
7 august, sat
sat701:00+15e226296 0.5 101320
04:00+13e33599 0.5 101326
07:00+13e33626 0.1 101336
10:00+23sse3540100 0.2 1010869
13:00+26sw343417 0.0 10082098
16:00+23ene664797 0.0 1008816
19:00+17wsw117582 1.8 1013123
22:00+13e32868 2.6 101530
8 august, sun
sun801:00+13ene349297 1.3 101691
04:00+12ese22791 1.3 101517
07:00+13se22754 0.0 101523
10:00+22sse23475 0.0 1012540
13:00+26ssw4731100 0.0 10102837
16:00+18n336432 0.3 1013112
19:00+18nne237320 1.1 1014237
22:00+14ne338883 2.3 101864